FW8761 Weather Reports


Display with metric or nautical units.
time (UTC)temp
F
wind
direction
speed
MPH
gust
MPH
rain 1hr
in
rain 24hr
in
rain mn
in
humidity
%
barometer
mb
20220926030010 84 190 2.0 7.0 0.00 0.00 0.00 62 1014.2
20220926025511 84 0 1.0 7.0 0.00 0.00 0.00 61 1014.2
20220926025013 84 137 1.0 6.0 0.00 0.00 0.00 62 1014.2
20220926024513 84 0 2.0 6.0 0.00 0.00 0.00 62 1014.2
20220926024011 84 124 0.0 5.0 0.00 0.00 0.00 63 1014.1
20220926023511 84 221 0.0 3.0 0.00 0.00 0.00 62 1014.1
20220926023011 85 223 0.0 4.0 0.00 0.00 0.00 62 1014.0
20220926022511 85 0 0.0 4.0 0.00 0.00 0.00 61 1014.0
20220926022013 85 152 0.0 7.0 0.00 0.00 0.00 61 1014.0
20220926021532 85 128 2.0 7.0 0.00 0.00 0.00 61 1013.8
20220926021013 85 0 0.0 6.0 0.00 0.00 0.00 60 1013.7
20220926020513 85 120 1.0 6.0 0.00 0.00 0.00 60 1013.6
20220926020024 85 134 1.0 7.0 0.00 0.00 0.00 60 1013.5
20220926015513 85 126 2.0 7.0 0.00 0.00 0.00 60 1013.4
20220926015013 85 187 2.0 5.0 0.00 0.00 0.00 60 1013.2
20220926014519 86 0 2.0 7.0 0.00 0.00 0.00 60 1013.2
20220926014018 86 142 1.0 7.0 0.00 0.00 0.00 60 1013.1
20220926013514 86 111 1.0 6.0 0.00 0.00 0.00 59 1013.0
20220926013014 86 137 2.0 7.0 0.00 0.00 0.00 59 1012.9
20220926012514 86 134 2.0 7.0 0.00 0.00 0.00 59 1012.8
20220926012010 86 96 2.0 6.0 0.00 0.00 0.00 58 1012.7
20220926011513 86 215 2.0 7.0 0.00 0.00 0.00 58 1012.6
20220926011014 86 165 1.0 7.0 0.00 0.00 0.00 58 1012.4
20220926010510 86 151 3.0 7.0 0.00 0.00 0.00 58 1012.3
20220926010032 86 133 3.0 7.0 0.00 0.00 0.00 58 1012.3
20220926005513 87 173 2.0 10.0 0.00 0.00 0.00 57 1012.3
20220926005013 87 0 3.0 10.0 0.00 0.00 0.00 57 1012.2
20220926004513 87 184 3.0 11.0 0.00 0.00 0.00 56 1012.3
20220926004013 87 140 3.0 12.0 0.00 0.00 0.00 56 1012.1
20220926003514 88 173 5.0 12.0 0.00 0.00 0.00 55 1012.0
20220926003013 88 123 3.0 10.0 0.00 0.00 0.00 53 1012.0
20220926002516 90 186 4.0 10.0 0.00 0.00 0.00 50 1011.8
20220926002013 90 126 2.0 7.0 0.00 0.00 0.00 45 1011.6
20220926001513 90 94 2.0 7.0 0.00 0.00 0.00 45 1011.6
20220926001013 91 140 2.0 8.0 0.00 0.00 0.00 44 1011.6
20220926000513 91 142 3.0 8.0 0.00 0.00 0.00 44 1011.6
20220926000015 92 121 3.0 9.0 0.00 0.00 0.00 43 1011.5
20220925235513 92 114 3.0 9.0 0.00 0.00 0.00 42 1011.4
20220925235014 92 127 1.0 6.0 0.00 0.00 0.00 42 1011.6
20220925234514 93 150 2.0 8.0 0.00 0.00 0.00 41 1011.4
20220925234013 93 153 2.0 8.0 0.00 0.00 0.00 40 1011.4
20220925233514 93 105 2.0 8.0 0.00 0.00 0.00 40 1011.3
20220925233013 93 114 2.0 7.0 0.00 0.00 0.00 40 1011.4
20220925232517 94 0 2.0 7.0 0.00 0.00 0.00 40 1011.4
20220925232016 94 194 2.0 7.0 0.00 0.00 0.00 40 1011.4
20220925231513 94 28 1.0 8.0 0.00 0.00 0.00 39 1011.3
20220925231016 95 60 3.0 8.0 0.00 0.00 0.00 38 1011.4
20220925230519 95 140 3.0 8.0 0.00 0.00 0.00 38 1011.3
20220925230013 95 63 2.0 6.0 0.00 0.00 0.00 38 1011.3
20220925225515 95 53 1.0 8.0 0.00 0.00 0.00 39 1011.3
20220925225013 95 119 3.0 8.0 0.00 0.00 0.00 38 1011.3
20220925224511 96 181 2.0 8.0 0.00 0.00 0.00 37 1011.5
20220925224012 96 144 3.0 7.0 0.00 0.00 0.00 37 1011.4
20220925223516 96 164 2.0 8.0 0.00 0.00 0.00 37 1011.4
20220925223011 96 96 2.0 8.0 0.00 0.00 0.00 37 1011.5
20220925222513 96 140 2.0 6.0 0.00 0.00 0.00 37 1011.5
20220925222013 96 140 4.0 6.0 0.00 0.00 0.00 36 1011.6
20220925221522 96 144 1.0 4.0 0.00 0.00 0.00 37 1011.6
20220925221021 96 101 2.0 6.0 0.00 0.00 0.00 36 1011.6
20220925220514 95 0 2.0 8.0 0.00 0.00 0.00 36 1011.6
20220925220010 96 225 2.0 10.0 0.00 0.00 0.00 38 1011.6
20220925215512 97 150 2.0 10.0 0.00 0.00 0.00 37 1011.7
20220925215017 97 80 1.0 9.0 0.00 0.00 0.00 37 1011.8
20220925214530 97 108 3.0 9.0 0.00 0.00 0.00 37 1011.8
20220925214012 97 124 2.0 7.0 0.00 0.00 0.00 37 1011.8
20220925213514 96 90 2.0 9.0 0.00 0.00 0.00 37 1011.9
20220925213011 96 139 1.0 11.0 0.00 0.00 0.00 38 1012.0
20220925212514 96 337 2.0 11.0 0.00 0.00 0.00 38 1012.0
20220925212014 96 360 1.0 9.0 0.00 0.00 0.00 38 1012.1
20220925211511 96 92 2.0 9.0 0.00 0.00 0.00 37 1012.0
20220925211014 95 114 4.0 9.0 0.00 0.00 0.00 39 1012.2
20220925210516 95 139 2.0 9.0 0.00 0.00 0.00 39 1012.1
20220925210013 96 127 2.0 10.0 0.00 0.00 0.00 39 1012.2
20220925205512 95 252 3.0 10.0 0.00 0.00 0.00 39 1012.4
20220925205012 95 122 1.0 9.0 0.00 0.00 0.00 38 1012.3
20220925204510 96 136 4.0 9.0 0.00 0.00 0.00 38 1012.4
20220925204012 95 144 1.0 9.0 0.00 0.00 0.00 38 1012.5
20220925203512 96 105 4.0 9.0 0.00 0.00 0.00 38 1012.8
20220925203011 98 90 5.0 9.0 0.00 0.00 0.00 37 1012.8
20220925202512 97 92 3.0 11.0 0.00 0.00 0.00 38 1012.7
20220925202017 96 128 2.0 11.0 0.00 0.00 0.00 38 1012.8
20220925201525 97 154 3.0 9.0 0.00 0.00 0.00 37 1012.9
20220925201012 97 132 4.0 9.0 0.00 0.00 0.00 37 1012.9
20220925200516 95 163 3.0 9.0 0.00 0.00 0.00 38 1012.8
20220925200011 95 215 2.0 8.0 0.00 0.00 0.00 39 1012.9
20220925195510 93 76 1.0 8.0 0.00 0.00 0.00 41 1013.1
20220925195016 96 63 2.0 7.0 0.00 0.00 0.00 39 1013.1
20220925194511 94 0 1.0 9.0 0.00 0.00 0.00 42 1013.0
20220925194013 95 119 3.0 10.0 0.00 0.00 0.00 40 1013.1
20220925193510 96 126 3.0 10.0 0.00 0.00 0.00 40 1013.1
20220925193029 95 142 2.0 6.0 0.00 0.00 0.00 41 1013.3
20220925192510 94 125 3.0 8.0 0.00 0.00 0.00 43 1013.3
20220925192015 94 70 3.0 8.0 0.00 0.00 0.00 42 1013.3
20220925191513 94 159 2.0 9.0 0.00 0.00 0.00 43 1013.5
20220925191017 95 201 3.0 9.0 0.00 0.00 0.00 43 1013.5
20220925190513 94 132 3.0 9.0 0.00 0.00 0.00 45 1013.6
20220925190027 95 123 4.0 9.0 0.00 0.00 0.00 44 1013.7
20220925185518 93 168 2.0 8.0 0.00 0.00 0.00 46 1013.7
20220925185022 94 44 2.0 8.0 0.00 0.00 0.00 44 1013.8
20220925184511 95 161 3.0 8.0 0.00 0.00 0.00 44 1013.9
20220925184011 93 125 3.0 7.0 0.00 0.00 0.00 44 1013.9
20220925183512 94 74 3.0 7.0 0.00 0.00 0.00 44 1014.2
20220925183018 93 155 2.0 5.0 0.00 0.00 0.00 46 1014.2
20220925182510 92 78 1.0 6.0 0.00 0.00 0.00 44 1014.2
20220925182014 92 119 2.0 8.0 0.00 0.00 0.00 43 1014.3
20220925181514 91 338 1.0 8.0 0.00 0.00 0.00 47 1014.3
20220925181010 93 140 2.0 7.0 0.00 0.00 0.00 47 1014.3
20220925180521 91 228 2.0 7.0 0.00 0.00 0.00 49 1014.4
20220925180017 91 134 2.0 6.0 0.00 0.00 0.00 51 1014.5
20220925175511 91 137 2.0 8.0 0.00 0.00 0.00 50 1014.6
20220925175010 91 124 3.0 8.0 0.00 0.00 0.00 50 1014.7
20220925174513 90 117 2.0 7.0 0.00 0.00 0.00 53 1014.7
20220925174011 90 329 2.0 7.0 0.00 0.00 0.00 52 1014.7
20220925173512 89 75 1.0 5.0 0.00 0.00 0.00 54 1014.9
20220925173040 88 98 1.0 7.0 0.00 0.00 0.00 53 1014.9
20220925172515 90 51 2.0 7.0 0.00 0.00 0.00 52 1014.9
20220925172013 89 35 1.0 5.0 0.00 0.00 0.00 51 1015.0
20220925171514 89 337 2.0 7.0 0.00 0.00 0.00 52 1015.1
20220925171011 88 99 2.0 7.0 0.00 0.00 0.00 53 1015.1
20220925170517 88 319 1.0 6.0 0.00 0.00 0.00 55 1015.1
20220925170011 88 133 2.0 6.0 0.00 0.00 0.00 55 1015.1
20220925165515 87 306 0.0 7.0 0.00 0.00 0.00 56 1015.1
20220925165018 87 116 2.0 7.0 0.00 0.00 0.00 55 1015.1
20220925164514 87 134 1.0 6.0 0.00 0.00 0.00 56 1015.1
20220925164012 87 154 2.0 6.0 0.00 0.00 0.00 56 1015.2
20220925163512 86 148 2.0 6.0 0.00 0.00 0.00 60 1015.2
20220925163014 86 337 2.0 5.0 0.00 0.00 0.00 61 1015.3
20220925162511 85 67 1.0 4.0 0.00 0.00 0.00 63 1015.2
20220925162011 85 0 1.0 6.0 0.00 0.00 0.00 64 1015.3
20220925161513 85 279 3.0 6.0 0.00 0.00 0.00 63 1015.4
20220925161011 86 187 1.0 7.0 0.00 0.00 0.00 62 1015.5
20220925160515 86 119 2.0 8.0 0.00 0.00 0.00 63 1015.5
20220925160014 85 90 3.0 8.0 0.00 0.00 0.00 63 1015.5
20220925155511 85 132 1.0 5.0 0.00 0.00 0.00 63 1015.4
20220925155011 85 125 2.0 6.0 0.00 0.00 0.00 66 1015.4
20220925154515 84 179 2.0 7.0 0.00 0.00 0.00 66 1015.6
20220925154011 84 103 2.0 8.0 0.00 0.00 0.00 65 1015.5
20220925153515 84 141 3.0 8.0 0.00 0.00 0.00 67 1015.5
20220925153011 84 88 2.0 6.0 0.00 0.00 0.00 68 1015.5
20220925152511 83 98 1.0 6.0 0.00 0.00 0.00 70 1015.5
20220925152012 82 96 2.0 6.0 0.00 0.00 0.00 70 1015.5
20220925151516 82 80 2.0 6.0 0.00 0.00 0.00 72 1015.4
20220925151011 82 157 3.0 7.0 0.00 0.00 0.00 70 1015.3
20220925150512 82 193 3.0 8.0 0.00 0.00 0.00 70 1015.4
20220925150013 81 156 2.0 8.0 0.00 0.00 0.00 75 1015.2
20220925145512 81 95 2.0 6.0 0.00 0.00 0.00 75 1015.1
20220925145012 81 140 1.0 6.0 0.00 0.00 0.00 75 1015.1
20220925144514 80 0 2.0 6.0 0.00 0.00 0.00 76 1015.0
20220925144011 80 194 2.0 6.0 0.00 0.00 0.00 76 1015.1
20220925143511 81 290 1.0 7.0 0.00 0.00 0.00 76 1014.9
20220925143013 81 216 3.0 7.0 0.00 0.00 0.00 76 1015.0
20220925142513 80 185 2.0 7.0 0.00 0.00 0.00 78 1014.9
20220925142014 79 92 1.0 3.0 0.00 0.00 0.00 81 1014.7
20220925141527 79 0 0.0 6.0 0.00 0.00 0.00 81 1014.6
20220925141015 79 0 2.0 6.0 0.00 0.00 0.00 81 1014.7
20220925140511 78 250 0.0 5.0 0.00 0.00 0.00 83 1014.8
20220925140016 78 172 1.0 5.0 0.00 0.00 0.00 84 1014.7
20220925135510 77 318 0.0 5.0 0.00 0.00 0.00 86 1014.9
20220925135012 77 211 1.0 5.0 0.00 0.00 0.00 86 1014.7
20220925134513 76 0 0.0 4.0 0.00 0.00 0.00 87 1014.7
20220925134011 76 157 0.0 4.0 0.00 0.00 0.00 88 1014.7
20220925133512 76 200 0.0 3.0 0.00 0.00 0.00 88 1014.7
20220925133014 75 286 0.0 3.0 0.00 0.00 0.00 89 1014.6
20220925132511 75 0 0.0 3.0 0.00 0.00 0.00 90 1014.7
20220925132010 75 325 1.0 3.0 0.00 0.00 0.00 90 1014.7
20220925131519 74 217 0.0 1.0 0.00 0.00 0.00 91 1014.5
20220925131012 74 0 0.0 1.0 0.00 0.00 0.00 92 1014.6
20220925130511 73 217 0.0 1.0 0.00 0.00 0.00 92 1014.6
20220925130016 73 0 0.0 1.0 0.00 0.00 0.00 92 1014.6
20220925125515 73 0 0.0 1.0 0.00 0.00 0.00 93 1014.5
20220925125012 72 0 0.0 1.0 0.00 0.00 0.00 92 1014.5
20220925124514 72 0 0.0 0.0 0.00 0.00 0.00 92 1014.5
20220925124015 72 0 0.0 0.0 0.00 0.00 0.00 92 1014.3
20220925123511 72 0 0.0 0.0 0.00 0.00 0.00 92 1014.4
20220925123021 72 0 0.0 0.0 0.00 0.00 0.00 92 1014.3
20220925122512 72 0 0.0 0.0 0.00 0.00 0.00 92 1014.3
20220925122011 72 0 0.0 0.0 0.00 0.00 0.00 92 1014.3
20220925121511 72 0 0.0 0.0 0.00 0.00 0.00 92 1014.3
20220925121011 72 0 0.0 0.0 0.00 0.00 0.00 92 1014.2
20220925120511 72 0 0.0 0.0 0.00 0.00 0.00 91 1014.3
20220925120011 73 0 0.0 0.0 0.00 0.00 0.00 91 1014.1
20220925115514 73 0 0.0 0.0 0.00 0.00 0.00 91 1014.1
20220925115011 73 0 0.0 0.0 0.00 0.00 0.00 91 1014.1
20220925114511 73 0 0.0 0.0 0.00 0.00 0.00 91 1014.1
20220925114012 73 0 0.0 0.0 0.00 0.00 0.00 91 1013.9
20220925113516 73 0 0.0 0.0 0.00 0.00 0.00 91 1013.9
20220925113013 73 0 0.0 0.0 0.00 0.00 0.00 91 1013.9
20220925112514 73 0 0.0 1.0 0.00 0.00 0.00 91 1013.9
20220925112011 73 0 0.0 1.0 0.00 0.00 0.00 90 1013.8
20220925111511 73 0 0.0 0.0 0.00 0.00 0.00 90 1013.8
20220925111010 74 0 0.0 0.0 0.00 0.00 0.00 90 1013.9
20220925110513 74 0 0.0 0.0 0.00 0.00 0.00 89 1013.9
20220925110011 74 0 0.0 1.0 0.00 0.00 0.00 89 1013.8
20220925105514 74 0 0.0 1.0 0.00 0.00 0.00 90 1013.8
20220925105014 74 0 0.0 1.0 0.00 0.00 0.00 89 1013.8
20220925104511 74 217 0.0 1.0 0.00 0.00 0.00 89 1013.8
20220925104014 74 0 0.0 1.0 0.00 0.00 0.00 89 1013.8
20220925103511 74 0 0.0 1.0 0.00 0.00 0.00 89 1013.7
20220925103014 74 0 0.0 0.0 0.00 0.00 0.00 89 1013.6
20220925102511 74 0 0.0 0.0 0.00 0.00 0.00 88 1013.8
20220925102014 75 0 0.0 1.0 0.00 0.00 0.00 88 1013.6
20220925101522 75 0 0.0 1.0 0.00 0.00 0.00 88 1013.6
20220925101015 75 0 0.0 3.0 0.00 0.00 0.00 88 1013.7
20220925100511 75 0 0.0 4.0 0.00 0.00 0.00 87 1013.6
20220925100014 75 0 0.0 4.0 0.00 0.00 0.00 87 1013.5
20220925095513 75 196 1.0 6.0 0.00 0.00 0.00 87 1013.6
20220925095011 76 197 2.0 6.0 0.00 0.00 0.00 87 1013.4
20220925094511 76 184 2.0 6.0 0.00 0.00 0.00 87 1013.4
20220925094012 76 182 0.0 5.0 0.00 0.00 0.00 87 1013.4
20220925093511 76 198 1.0 5.0 0.00 0.00 0.00 87 1013.4
20220925093012 76 223 0.0 3.0 0.00 0.00 0.00 86 1013.4
20220925092511 76 0 0.0 3.0 0.00 0.00 0.00 86 1013.5
20220925092015 76 209 1.0 5.0 0.00 0.00 0.00 86 1013.5
20220925091511 76 213 1.0 7.0 0.00 0.00 0.00 86 1013.4
20220925091012 76 136 4.0 7.0 0.00 0.00 0.00 86 1013.4
20220925090511 76 232 2.0 6.0 0.00 0.00 0.00 85 1013.4
20220925090013 76 161 2.0 6.0 0.00 0.00 0.00 85 1013.6
20220925085512 76 210 1.0 4.0 0.00 0.00 0.00 85 1013.6
20220925085011 76 182 1.0 4.0 0.00 0.00 0.00 85 1013.5
20220925084513 76 199 0.0 5.0 0.00 0.00 0.00 85 1013.7
20220925084012 77 220 1.0 7.0 0.00 0.00 0.00 84 1013.7
20220925083512 77 180 3.0 7.0 0.00 0.00 0.00 84 1013.7
20220925083018 77 181 2.0 5.0 0.00 0.00 0.00 84 1013.7
20220925082511 77 0 1.0 5.0 0.00 0.00 0.00 84 1013.7
20220925082013 77 201 1.0 5.0 0.00 0.00 0.00 85 1013.7
20220925081514 77 189 1.0 5.0 0.00 0.00 0.00 85 1013.8
20220925081011 77 189 2.0 5.0 0.00 0.00 0.00 85 1013.7
20220925080511 77 178 0.0 7.0 0.00 0.00 0.00 84 1013.7
20220925080011 77 169 3.0 7.0 0.00 0.00 0.00 85 1013.7
20220925075513 77 259 0.0 5.0 0.00 0.00 0.00 84 1013.8
20220925075012 77 0 0.0 5.0 0.00 0.00 0.00 84 1013.9
20220925074529 77 229 0.0 5.0 0.00 0.00 0.00 83 1013.9
20220925074011 77 199 1.0 7.0 0.00 0.00 0.00 83 1013.8
20220925073512 77 173 2.0 7.0 0.00 0.00 0.00 83 1013.7
20220925073014 77 200 1.0 5.0 0.00 0.00 0.00 83 1013.7
20220925072511 77 194 0.0 4.0 0.00 0.00 0.00 82 1013.7
20220925072011 77 0 0.0 7.0 0.00 0.00 0.00 82 1013.7
20220925071520 77 150 2.0 7.0 0.00 0.00 0.00 82 1013.7
20220925071012 77 0 3.0 7.0 0.00 0.00 0.00 82 1013.6
20220925070511 77 197 2.0 6.0 0.00 0.00 0.00 82 1013.6
20220925070018 77 198 2.0 6.0 0.00 0.00 0.00 81 1013.7
20220925065513 77 177 2.0 6.0 0.00 0.00 0.00 81 1013.7
20220925065012 78 210 2.0 6.0 0.00 0.00 0.00 81 1013.7
20220925064515 78 184 1.0 6.0 0.00 0.00 0.00 81 1013.7
20220925064012 78 170 1.0 7.0 0.00 0.00 0.00 81 1013.7
20220925063519 78 139 3.0 7.0 0.00 0.00 0.00 80 1013.7
20220925063011 78 96 1.0 6.0 0.00 0.00 0.00 80 1013.8
20220925062511 78 0 0.0 8.0 0.00 0.00 0.00 80 1013.8
20220925062011 78 173 2.0 8.0 0.00 0.00 0.00 79 1013.7
20220925061540 78 188 2.0 7.0 0.00 0.00 0.00 79 1013.8
20220925061013 78 188 2.0 5.0 0.00 0.00 0.00 79 1013.9
20220925060512 79 131 2.0 5.0 0.00 0.00 0.00 79 1013.9
20220925060014 79 155 1.0 5.0 0.00 0.00 0.00 78 1013.9
20220925055512 79 0 1.0 5.0 0.00 0.00 0.00 78 1013.9
20220925055016 79 135 1.0 5.0 0.00 0.00 0.00 78 1013.9
20220925054510 79 173 2.0 5.0 0.00 0.00 0.00 78 1014.1
20220925054012 79 140 0.0 5.0 0.00 0.00 0.00 78 1014.1
20220925053518 79 200 2.0 7.0 0.00 0.00 0.00 77 1014.0
20220925053017 79 223 1.0 7.0 0.00 0.00 0.00 77 1014.1
20220925052513 79 178 2.0 6.0 0.00 0.00 0.00 77 1014.2
20220925052016 79 167 1.0 7.0 0.00 0.00 0.00 77 1014.2
20220925051516 80 166 3.0 7.0 0.00 0.00 0.00 76 1014.2
20220925051012 80 207 2.0 7.0 0.00 0.00 0.00 76 1014.2
20220925050512 80 131 1.0 5.0 0.00 0.00 0.00 76 1014.2
20220925050011 80 132 1.0 6.0 0.00 0.00 0.00 76 1014.2
20220925045511 80 227 2.0 6.0 0.00 0.00 0.00 76 1014.2
20220925045015 80 144 2.0 7.0 0.00 0.00 0.00 75 1014.1
20220925044511 80 195 2.0 7.0 0.00 0.00 0.00 75 1014.0
20220925044013 80 151 2.0 8.0 0.00 0.00 0.00 75 1013.9
20220925043511 81 129 4.0 8.0 0.00 0.00 0.00 75 1014.0
20220925043016 81 200 4.0 7.0 0.00 0.00 0.00 75 1014.0
20220925042512 81 158 2.0 8.0 0.00 0.00 0.00 74 1014.0
20220925042015 81 206 4.0 8.0 0.00 0.00 0.00 74 1014.0
20220925041513 81 199 2.0 10.0 0.00 0.00 0.00 74 1014.0
20220925041014 81 186 3.0 10.0 0.00 0.00 0.00 74 1013.9
20220925040516 81 198 3.0 6.0 0.00 0.00 0.00 73 1013.9
20220925040013 81 191 2.0 7.0 0.00 0.00 0.00 73 1013.8
20220925035513 82 206 2.0 9.0 0.00 0.00 0.00 72 1013.9
20220925035013 82 0 3.0 9.0 0.00 0.00 0.00 72 1013.9
20220925034535 82 197 3.0 7.0 0.00 0.00 0.00 72 1013.8
20220925034012 82 156 3.0 9.0 0.00 0.00 0.00 71 1014.0
20220925033512 82 189 4.0 9.0 0.00 0.00 0.00 71 1014.0
20220925033013 82 163 3.0 9.0 0.00 0.00 0.00 71 1014.1
20220925032522 82 120 2.0 9.0 0.00 0.00 0.00 70 1014.0
20220925032013 82 147 2.0 8.0 0.00 0.00 0.00 69 1014.1
20220925031524 83 192 2.0 8.0 0.00 0.00 0.00 69 1014.0
20220925031017 83 144 3.0 8.0 0.00 0.00 0.00 69 1014.0
20220925030514 83 154 2.0 9.0 0.00 0.00 0.00 69 1014.0